This is the latest recevied weather packets stored in our database for station/object N4AR. If no packets are shown the sender has not sent any weather packets the latest 1 day(s).
| Time | Temp. | Humidity | Pressure | Rain* | Wind** | Luminosity | Snow |
|---|---|---|---|---|---|---|---|
| 1777960931 | 17.22° C | 62% | 1014.6 hPa | 0 mm | 0.45 m/s, 77° | 0 W/m² | - |
| 1777960626 | 17.22° C | 62% | 1014.6 hPa | 0 mm | 0.45 m/s, 107° | 0 W/m² | - |
| 1777960323 | 17.78° C | 62% | 1014.6 hPa | 0 mm | 0.89 m/s, 75° | 0 W/m² | - |
| 1777960020 | 17.78° C | 62% | 1014.6 hPa | 0 mm | 0.45 m/s, 25° | 0 W/m² | - |
| 1777959718 | 17.78° C | 62% | 1014.6 hPa | 0 mm | 0.89 m/s, 92° | 0 W/m² | - |
| 1777959416 | 17.78° C | 62% | 1014.7 hPa | 0 mm | 0.45 m/s, 68° | 0 W/m² | - |
| 1777959112 | 17.78° C | 62% | 1014.6 hPa | 0 mm | 0.45 m/s, 56° | 0 W/m² | - |
| 1777958809 | 17.78° C | 62% | 1014.4 hPa | 0 mm | 0.89 m/s, 1° | 0 W/m² | - |
| 1777958506 | 17.78° C | 62% | 1014.6 hPa | 0 mm | 0.45 m/s, 95° | 0 W/m² | - |
| 1777958203 | 17.78° C | 62% | 1014.6 hPa | 0 mm | 0.45 m/s, 172° | 0 W/m² | - |
| 1777957902 | 17.78° C | 62% | 1014.5 hPa | 0 mm | 0 m/s | 0 W/m² | - |
| 1777957599 | 17.78° C | 61% | 1014.6 hPa | 0 mm | 0.45 m/s, 48° | 0 W/m² | - |
| 1777957297 | 17.78° C | 62% | 1014.7 hPa | 0 mm | 0.45 m/s, 74° | 0 W/m² | - |
| 1777956992 | 17.78° C | 61% | 1014.7 hPa | 0 mm | 0.45 m/s, 86° | 0 W/m² | - |
| 1777956690 | 17.78° C | 61% | 1014.6 hPa | 0 mm | 0.45 m/s, 134° | 0 W/m² | - |
| 1777956387 | 18.33° C | 61% | 1014.5 hPa | 0 mm | 0.89 m/s, 149° | 0 W/m² | - |
| 1777956084 | 18.33° C | 61% | 1014.5 hPa | 0 mm | 0 m/s | 0 W/m² | - |
| 1777955780 | 18.33° C | 60% | 1014.6 hPa | 0 mm | 0 m/s | 0 W/m² | - |
| 1777955477 | 18.33° C | 60% | 1014.7 hPa | 0 mm | 0.45 m/s, 127° | 0 W/m² | - |
| 1777955172 | 18.33° C | 60% | 1014.8 hPa | 0 mm | 0.45 m/s, 52° | 0 W/m² | - |
| 1777954870 | 18.33° C | 60% | 1014.7 hPa | 0 mm | 0.89 m/s, 91° | 0 W/m² | - |
| 1777954567 | 18.33° C | 60% | 1014.6 hPa | 0 mm | 0.45 m/s, 76° | 0 W/m² | - |
| 1777954264 | 18.33° C | 60% | 1014.7 hPa | 0 mm | 0.89 m/s, 80° | 0 W/m² | - |
| 1777953961 | 18.33° C | 60% | 1014.5 hPa | 0 mm | 0 m/s | 0 W/m² | - |
| 1777953658 | 18.33° C | 61% | 1014.6 hPa | 0 mm | 0 m/s | 0 W/m² | - |
* Rain latest hour (hover to see other rain measurements)
** Current wind speed in m/s (hover to see current wind gust speed)